This demonstration page uses our WeatherBlox Daily Observations layout. Learn more.

Left ArrowRight Arrow

39.01783, -85.05884

Hourly Observations for February 27, 2021

Temp ( °F °C ) Dew Point ( °F °C ) Humidity (%) Winds ( mph kmh ) Pressure ( in mb ) Visibility ( mi km ) Precip ( " mm )
12:52 am 00:52 Cloudy with Mist and Fog 43 6.1 40 4.4 89 89 SSE 9 15 29.94 1014 3 5 0.00 0.00
1:52 am 01:52 Cloudy with Mist and Fog 44 6.7 41 5 89 89 SSE 10 17 29.91 1013 3 5 0.00 0.00
2:52 am 02:52 Cloudy with Mist and Fog 45 7.2 42 5.6 90 90 SSE 9 15 29.88 1012 3 5 0.00 0.00
3:26 am 03:26 Cloudy with Mist and Fog 45 7.2 42 5.6 90 90 SSE 8 13 29.89 1012 3 5 0.00 0.00
3:52 am 03:52 Cloudy with Mist and Fog 46 7.8 43 6.1 89 89 S 7 11 29.88 1012 6 10 0.00 0.00
4:52 am 04:52 Cloudy with Drizzle 46 7.8 44 6.7 93 93 S 7 11 29.89 1012 5 8 0.00 0.00
5:18 am 05:18 Cloudy with Light Rain 47 8.3 44 6.7 90 90 S 8 13 29.93 1013 3 5 0.00 0.00
5:29 am 05:29 Cloudy with Light Rain 47 8.3 44 6.7 90 90 SSW 7 11 29.93 1013 2 3 0.01 0.25
5:52 am 05:52 Cloudy with Light Rain 47 8.3 44 6.7 90 90 SW 7 11 29.93 1013 3 4 0.03 0.76
6:18 am 06:18 Cloudy with Drizzle 47 8.3 45 7.2 93 93 SW 7 11 29.96 1014 3 5 0.00 0.00
6:33 am 06:33 Cloudy with Drizzle 47 8.3 45 7.2 93 93 SW 7 11 29.97 1015 2 2 0.00 0.00
6:52 am 06:52 Cloudy with Drizzle 47 8.3 45 7.2 93 93 W 9 15 29.95 1014 2 2 0.00 0.00
7:00 am 07:00 Cloudy with Drizzle 47 8.3 45 7.2 93 93 W 10 17 29.98 1015 3 4 0.00 0.00
7:52 am 07:52 Cloudy 47 8.3 44 6.7 90 90 WNW 10 17 30.00 1016 7 11 0.00 0.00
8:52 am 08:52 Mostly Cloudy 47 8.3 43 6.1 86 86 NW 10 17 30.04 1017 8 13 0.00 0.00
9:52 am 09:52 Cloudy 47 8.3 41 5 80 80 NNW 10 17 30.09 1019 9 14 0.00 0.00
10:52 am 10:52 Partly Cloudy 50 10 42 5.6 74 74 WSW 5 7 30.10 1019 9 14 0.00 0.00
11:52 am 11:52 Partly Cloudy 52 11.1 41 5 66 66 SW 5 7 30.10 1019 10 16 0.00 0.00
12:52 pm 12:52 Partly Cloudy 55 12.8 42 5.6 62 62 S 8 13 30.11 1020 10 16 0.00 0.00
1:52 pm 13:52 Partly Cloudy 56 13.3 42 5.6 60 60 VRB 3 6 30.09 1019 10 16 0.00 0.00
2:52 pm 14:52 Partly Cloudy 58 14.4 41 5 53 53 SSW 5 7 30.10 1019 10 16 0.00 0.00
3:52 pm 15:52 Mostly Cloudy 58 14.4 40 4.4 51 51 Calm 30.09 1019 10 16 0.00 0.00
4:52 pm 16:52 Cloudy 58 14.4 41 5 53 53 Calm 30.10 1019 10 16 0.00 0.00
5:52 pm 17:52 Cloudy 55 12.8 42 5.6 62 62 SE 6 9 30.10 1019 10 16 0.00 0.00
6:52 pm 18:52 Mostly Cloudy 53 11.7 42 5.6 66 66 SE 8 13 30.12 1020 10 16 0.00 0.00
7:52 pm 19:52 Mostly Cloudy 52 11.1 43 6.1 72 72 SE 10 17 30.14 1021 10 16 0.00 0.00
8:52 pm 20:52 Cloudy 51 10.6 43 6.1 74 74 E 10 17 30.12 1020 10 16 0.00 0.00
9:52 pm 21:52 Cloudy 51 10.6 43 6.1 74 74 E 9 15 30.09 1019 10 16 0.00 0.00
10:52 pm 22:52 Cloudy 50 10 43 6.1 77 77 E 8 13 30.07 1018 10 16 0.00 0.00
11:34 pm 23:34 Cloudy 50 10 43 6.1 77 77 ESE 10 17 30.07 1018 10 16 0.00 0.00
11:52 pm 23:52 Cloudy 51 10.6 43 6.1 74 74 ESE 14 22 30.05 1018 10 16 0.00 0.00

Powered by AerisWeather